Content
SEND FEEDBACK

Daily
Averages
Monthly
Summary
Mauritania

PORT-ETIENNE, MAURITANIA


Home > Africa > Mauritania
Elevation: 10 feet     Latitude: 20 54N     Longitude: 017 06W

WEATHER
 
SELECT A DAY
Number of Records: 120,358;   Date Range: 7/1/96 - 10/1/14
 
SHARE

PRINT THIS DATA

[ ← Previous Day ]
WEATHER ALMANAC - MARCH 5, 2013
[ Next Day → ]
[ °C ]   °F
Weather ElementAverageHighLow
Temperature68.9 °F75 °F (3:00 pm)66 °F (3:00 am)
Dewpoint64.8 °F67 °F (9:00 am)62.6 °F (2:00 pm)
Humidity86.5 %100 % (9:00 am)62 % (3:00 pm)
Barometer29.93 in30.01 in (10:00 pm)29.83 in (4:00 am)
Wind Speed7.5 mph11.5 mph (12:00 pm)
Weather ElementAverage
Visibility3.5 mi
Wind DirectionWSW (250.7 °)

Weather ElementTotal
Precipitation---
Cooling Degree Days5.5 (Base 65)
Growing Degree Days20.5 (Base 50)
Averaged from 30 records on March 5, 2013
WEATHER CONDITIONS BREAKOUT
WIND DIRECTION BREAKOUT
WEATHER BY HOUR - MARCH 5, 2013
[ °C ]   °F
Local TimeTemperatureDewpointHumidityBarometerVisibilityWind DirectionWind SpeedGust SpeedPrecipitationEventsConditions
12:00 AM66.2 °F64.4 °F94 %29.89 in5.0 miSW (230°)5.8 mphMostly Cloudy
1:00 AM66.2 °F64.4 °F94 %29.89 in3.7 miSW (230°)9.2 mphMostly Cloudy
2:00 AM66.2 °F64.4 °F94 %29.86 in3.7 miWSW (240°)6.9 mphMostly Cloudy
3:00 AM66.0 °F66.0 °F98 %29.87 in4.0 miSW (220°)6.9 mphMostly Cloudy
3:00 AM66.2 °F64.4 °F94 %29.86 in3.7 miSW (220°)6.9 mphMostly Cloudy
4:00 AM66.2 °F64.4 °F94 %29.83 in3.7 miSW (220°)4.6 mphMostly Cloudy
5:00 AM66.2 °F64.4 °F94 %29.86 in3.7 miSW (230°)5.8 mphMostly Cloudy
6:00 AM66.2 °F64.4 °F94 %29.86 in2.5 miSSW (210°)6.9 mphMostly Cloudy
6:00 AM66.0 °F66.0 °F98 %29.87 in2.0 miSW (220°)5.8 mphMist
7:00 AM66.2 °F64.4 °F94 %29.89 in2.5 miSW (220°)5.8 mphMostly Cloudy
8:00 AM66.2 °F64.4 °F94 %29.89 in2.5 miSW (230°)4.6 mphMostly Cloudy
9:00 AM67.0 °F67.0 °F100 %29.94 in2.0 miSW (230°)5.8 mphMist
9:00 AM68.0 °F64.4 °F88 %29.92 in2.5 miSW (220°)6.9 mphMostly Cloudy
10:00 AM69.8 °F66.2 °F88 %29.95 in2.5 miSW (220°)6.9 mphMostly Cloudy
11:00 AM71.6 °F66.2 °F83 %29.98 in3.7 miWSW (250°)9.2 mphMostly Cloudy
12:00 PM73.4 °F64.4 °F73 %29.98 in3.7 miWest (280°)11.5 mphScattered Clouds
12:00 PM73.0 °F66.0 °F73 %29.99 in4.0 miWest (270°)10.4 mphPartly Cloudy
2:00 PM73.4 °F62.6 °F69 %29.95 in3.7 miWest (270°)9.2 mphScattered Clouds
3:00 PM75.0 °F64.0 °F62 %29.95 in4.0 miWest (280°)10.4 mphPartly Cloudy
3:00 PM73.4 °F64.4 °F73 %29.92 in3.7 miWest (280°)9.2 mphScattered Clouds
4:00 PM73.4 °F64.4 °F73 %29.92 in3.7 miWest (270°)10.4 mphScattered Clouds
5:00 PM71.6 °F64.4 °F78 %29.92 in3.7 miWest (270°)10.4 mphScattered Clouds
6:00 PM71.6 °F64.4 °F78 %29.92 in3.7 miWest (270°)10.4 mphScattered Clouds
6:00 PM72.0 °F66.0 °F75 %29.95 in5.0 miWest (270°)10.4 mphPartly Cloudy
7:00 PM69.8 °F64.4 °F83 %29.95 in3.7 miWest (260°)8.1 mphPartly Cloudy
8:00 PM68.0 °F64.4 °F88 %29.95 in3.7 miWest (270°)5.8 mphPartly Cloudy
9:00 PM68.0 °F66.0 °F93 %30.00 in5.0 miWest (280°)5.8 mphPartly Cloudy
9:00 PM68.0 °F64.4 °F88 %29.98 in3.7 miWest (280°)4.6 mphPartly Cloudy
10:00 PM66.2 °F64.4 °F94 %30.01 in3.7 miWest (280°)4.6 mphPartly Cloudy
11:00 PM66.2 °F64.4 °F94 %30.01 in3.7 miWNW (300°)4.6 mphPartly Cloudy
Hourly data recorded from GQPP, located miles away from Port-Etienne, Mauritania







STORIES FROM OUR PARTNERS